This is the latest recevied weather packets stored in our database for station/object W5DNT. If no packets are shown the sender has not sent any weather packets the latest 10 day(s).
| Time | Temp. | Humidity | Pressure | Rain* | Wind** | Luminosity | Snow |
|---|---|---|---|---|---|---|---|
| 1777693549 | 11.11° C | 88% | 1020 hPa | 0 mm | - | - | - |
| 1777692653 | 11.11° C | 88% | 1019.9 hPa | 0 mm | - | - | - |
| 1777691746 | 11.11° C | 88% | 1019.4 hPa | 0 mm | - | - | - |
| 1777690843 | 11.67° C | 88% | 1019.1 hPa | 0 mm | - | - | - |
| 1777689943 | 11.67° C | 87% | 1019.1 hPa | 0 mm | - | - | - |
| 1777689040 | 11.67° C | 87% | 1019 hPa | 0 mm | - | - | - |
| 1777688138 | 12.22° C | 87% | 1018.9 hPa | 0 mm | - | - | - |
| 1777687237 | 12.22° C | 87% | 1018.8 hPa | 0 mm | - | - | - |
| 1777686335 | 12.22° C | 87% | 1018.6 hPa | 0 mm | - | - | - |
| 1777685432 | 12.78° C | 87% | 1018.1 hPa | 0 mm | - | - | - |
| 1777684551 | 13.33° C | 87% | 1017.9 hPa | 0 mm | - | - | - |
| 1777683629 | 13.33° C | 87% | 1017.4 hPa | 0 mm | - | - | - |
| 1777682738 | 13.89° C | 87% | 1017 hPa | 0 mm | - | - | - |
| 1777681826 | 13.89° C | 87% | 1016.9 hPa | 0 mm | - | - | - |
| 1777680923 | 13.89° C | 87% | 1016.7 hPa | 0 mm | - | - | - |
| 1777680022 | 13.89° C | 87% | 1016.5 hPa | 0 mm | - | - | - |
| 1777679121 | 13.89° C | 87% | 1016 hPa | 0 mm | - | - | - |
| 1777678221 | 13.89° C | 87% | 1015.7 hPa | 0 mm | - | - | - |
| 1777677333 | 13.89° C | 88% | 1015.4 hPa | 0 mm | - | - | - |
| 1777676425 | 13.33° C | 87% | 1015.1 hPa | 0 mm | - | - | - |
| 1777675520 | 13.33° C | 88% | 1015.1 hPa | 0 mm | - | - | - |
| 1777674618 | 13.33° C | 88% | 1015.2 hPa | 0 mm | - | - | - |
| 1777673717 | 12.78° C | 88% | 1015.2 hPa | 0 mm | - | - | - |
| 1777672819 | 12.78° C | 88% | 1015.5 hPa | 0 mm | - | - | - |
| 1777671917 | 12.78° C | 88% | 1015.4 hPa | 0 mm | - | - | - |
* Rain latest hour (hover to see other rain measurements)
** Current wind speed in m/s (hover to see current wind gust speed)